iso_date,epoch_date,Year,Hour,Min,DOY,POS_DOY,Lat,Lon,BP,Ts,Ta,has_bp,has_ts,has_ta,BuoyID,Buoy_Type,Buoy_Owner,Logistics,Hemisphere
2018-09-15T13:00:28Z,1537016429,2018,13,0,258.542,258.542,81.95817,119.76828,-999.00,1.55,-999.0,no,yes,no,300234011882340,iSVP,AWI,PS115.2,North
2018-09-15T13:29:16Z,1537018157,2018,13,30,258.562,258.562,81.96054,119.76646,-999.00,-0.65,-999.0,no,yes,no,300234011882340,iSVP,AWI,PS115.2,North
2018-09-15T13:59:31Z,1537019971,2018,14,0,258.583,258.583,81.96237,119.76349,-999.00,-0.8,-999.0,no,yes,no,300234011882340,iSVP,AWI,PS115.2,North
2018-09-15T14:29:45Z,1537021786,2018,14,30,258.604,258.604,81.94267,119.93796,-999.00,-1.1,-999.0,no,yes,no,300234011882340,iSVP,AWI,PS115.2,North
2018-09-15T15:00:00Z,1537023600,2018,15,0,258.625,258.625,81.90194,120.19798,-999.00,-1.25,-999.0,no,yes,no,300234011882340,iSVP,AWI,PS115.2,North
2018-09-15T15:30:14Z,1537025414,2018,15,30,258.646,258.646,81.85879,120.49025,-999.00,-1.45,-999.0,no,yes,no,300234011882340,iSVP,AWI,PS115.2,North
2018-09-15T16:00:28Z,1537027229,2018,16,0,258.667,258.667,81.80596,120.65421,-999.00,-1.55,-999.0,no,yes,no,300234011882340,iSVP,AWI,PS115.2,North
2018-09-15T16:30:43Z,1537029043,2018,16,30,258.688,258.688,81.75307,120.78259,-999.00,-1.6,-999.0,no,yes,no,300234011882340,iSVP,AWI,PS115.2,North
2018-09-15T16:59:31Z,1537030771,2018,17,0,258.708,258.708,81.69929,120.90087,-999.00,-1.8,-999.0,no,yes,no,300234011882340,iSVP,AWI,PS115.2,North
2018-09-15T17:29:45Z,1537032586,2018,17,30,258.729,258.729,81.64464,121.00315,-999.00,-2.05,-999.0,no,yes,no,300234011882340,iSVP,AWI,PS115.2,North
2018-09-15T18:00:00Z,1537034400,2018,18,0,258.75,258.75,81.58816,121.09288,-999.00,-2.25,-999.0,no,yes,no,300234011882340,iSVP,AWI,PS115.2,North
2018-09-15T18:30:14Z,1537036214,2018,18,30,258.771,258.771,81.53344,121.20308,-999.00,-2.35,-999.0,no,yes,no,300234011882340,iSVP,AWI,PS115.2,North
2018-09-16T10:30:43Z,1537093843,2018,10,30,259.438,259.438,81.37318,124.3012,-999.00,-0.9,-999.0,no,yes,no,300234011882340,iSVP,AWI,PS115.2,North
2018-09-16T10:59:31Z,1537095571,2018,11,0,259.458,259.458,81.34467,124.47698,-999.00,-0.8,-999.0,no,yes,no,300234011882340,iSVP,AWI,PS115.2,North
2018-09-16T11:29:45Z,1537097386,2018,11,30,259.479,259.479,81.31656,124.35227,-999.00,-0.75,-999.0,no,yes,no,300234011882340,iSVP,AWI,PS115.2,North
2018-09-16T12:00:00Z,1537099200,2018,12,0,259.5,259.5,81.34243,124.14139,-999.00,-0.75,-999.0,no,yes,no,300234011882340,iSVP,AWI,PS115.2,North
2018-09-16T12:30:14Z,1537101014,2018,12,30,259.521,259.521,81.37024,124.20804,-999.00,-0.8,-999.0,no,yes,no,300234011882340,iSVP,AWI,PS115.2,North
2018-09-16T13:00:28Z,1537102829,2018,13,0,259.542,259.542,81.37902,124.46475,-999.00,-0.65,-999.0,no,yes,no,300234011882340,iSVP,AWI,PS115.2,North
2018-09-16T13:29:16Z,1537104557,2018,13,30,259.562,259.562,81.38359,124.71919,-999.00,-0.6,-999.0,no,yes,no,300234011882340,iSVP,AWI,PS115.2,North
2018-09-16T13:59:31Z,1537106371,2018,14,0,259.583,259.583,81.3868,124.98791,-999.00,-0.6,-999.0,no,yes,no,300234011882340,iSVP,AWI,PS115.2,North
2018-09-16T14:29:45Z,1537108186,2018,14,30,259.604,259.604,81.3919,125.25806,-999.00,-0.6,-999.0,no,yes,no,300234011882340,iSVP,AWI,PS115.2,North
2018-09-16T15:00:00Z,1537110000,2018,15,0,259.625,259.625,81.39585,125.52793,-999.00,-0.55,-999.0,no,yes,no,300234011882340,iSVP,AWI,PS115.2,North
2018-09-16T15:30:14Z,1537111814,2018,15,30,259.646,259.646,81.40016,125.80427,-999.00,-0.7,-999.0,no,yes,no,300234011882340,iSVP,AWI,PS115.2,North
2018-09-16T16:00:28Z,1537113629,2018,16,0,259.667,259.667,81.40433,126.06825,-999.00,-0.85,-999.0,no,yes,no,300234011882340,iSVP,AWI,PS115.2,North
2018-09-16T16:30:43Z,1537115443,2018,16,30,259.688,259.688,81.40921,126.34372,-999.00,-0.95,-999.0,no,yes,no,300234011882340,iSVP,AWI,PS115.2,North
2018-09-16T16:59:31Z,1537117171,2018,17,0,259.708,259.708,81.41326,126.62226,-999.00,-1.0,-999.0,no,yes,no,300234011882340,iSVP,AWI,PS115.2,North
2018-09-16T17:29:45Z,1537118986,2018,17,30,259.729,259.729,81.41744,126.89763,-999.00,-1.05,-999.0,no,yes,no,300234011882340,iSVP,AWI,PS115.2,North
2018-09-16T18:00:00Z,1537120800,2018,18,0,259.75,259.75,81.42156,127.17341,-999.00,-1.05,-999.0,no,yes,no,300234011882340,iSVP,AWI,PS115.2,North
2018-09-16T18:30:14Z,1537122614,2018,18,30,259.771,259.771,81.42616,127.44579,-999.00,-1.05,-999.0,no,yes,no,300234011882340,iSVP,AWI,PS115.2,North
2018-09-16T19:00:28Z,1537124429,2018,19,0,259.792,259.792,81.43031,127.71847,-999.00,-1.15,-999.0,no,yes,no,300234011882340,iSVP,AWI,PS115.2,North
2018-09-16T19:29:16Z,1537126157,2018,19,30,259.812,259.812,81.42632,127.99306,-999.00,-1.1,-999.0,no,yes,no,300234011882340,iSVP,AWI,PS115.2,North
2018-09-16T19:59:31Z,1537127971,2018,20,0,259.833,259.833,81.4169,128.25309,-999.00,-1.05,-999.0,no,yes,no,300234011882340,iSVP,AWI,PS115.2,North
2018-09-16T20:29:45Z,1537129786,2018,20,30,259.854,259.854,81.41001,128.51226,-999.00,-1.05,-999.0,no,yes,no,300234011882340,iSVP,AWI,PS115.2,North
2018-09-16T21:00:00Z,1537131600,2018,21,0,259.875,259.875,81.42123,128.77292,-999.00,-1.2,-999.0,no,yes,no,300234011882340,iSVP,AWI,PS115.2,North
2018-09-16T21:30:14Z,1537133414,2018,21,30,259.896,259.896,81.42942,129.02605,-999.00,-1.2,-999.0,no,yes,no,300234011882340,iSVP,AWI,PS115.2,North
2018-09-16T22:00:28Z,1537135229,2018,22,0,259.917,259.917,81.43026,129.28967,-999.00,-1.25,-999.0,no,yes,no,300234011882340,iSVP,AWI,PS115.2,North
2018-09-16T22:30:43Z,1537137043,2018,22,30,259.938,259.938,81.43693,129.55932,-999.00,-1.25,-999.0,no,yes,no,300234011882340,iSVP,AWI,PS115.2,North
2018-09-16T22:59:31Z,1537138771,2018,23,0,259.958,259.958,81.44336,129.82777,-999.00,-1.25,-999.0,no,yes,no,300234011882340,iSVP,AWI,PS115.2,North
2018-09-16T23:29:45Z,1537140586,2018,23,30,259.979,259.979,81.4506,130.09046,-999.00,-1.25,-999.0,no,yes,no,300234011882340,iSVP,AWI,PS115.2,North
2018-09-17T00:00:00Z,1537142400,2018,0,0,260.0,260.0,81.45767,130.35868,-999.00,-1.2,-999.0,no,yes,no,300234011882340,iSVP,AWI,PS115.2,North
2018-09-17T00:30:14Z,1537144214,2018,0,30,260.021,260.021,81.46266,130.61288,-999.00,-1.2,-999.0,no,yes,no,300234011882340,iSVP,AWI,PS115.2,North
2018-09-17T01:00:28Z,1537146029,2018,1,0,260.042,260.042,81.46885,130.85722,-999.00,-1.15,-999.0,no,yes,no,300234011882340,iSVP,AWI,PS115.2,North
2018-09-17T01:29:16Z,1537147757,2018,1,30,260.062,260.062,81.46729,131.13069,-999.00,-1.1,-999.0,no,yes,no,300234011882340,iSVP,AWI,PS115.2,North
2018-09-17T01:59:31Z,1537149571,2018,2,0,260.083,260.083,81.47244,131.40095,-999.00,-1.15,-999.0,no,yes,no,300234011882340,iSVP,AWI,PS115.2,North
2018-09-17T02:29:45Z,1537151386,2018,2,30,260.104,260.104,81.47429,131.67893,-999.00,-1.15,-999.0,no,yes,no,300234011882340,iSVP,AWI,PS115.2,North
2018-09-17T03:00:00Z,1537153200,2018,3,0,260.125,260.125,81.4765,131.95679,-999.00,-1.15,-999.0,no,yes,no,300234011882340,iSVP,AWI,PS115.2,North
2018-09-17T03:30:14Z,1537155014,2018,3,30,260.146,260.146,81.47837,132.23909,-999.00,-1.2,-999.0,no,yes,no,300234011882340,iSVP,AWI,PS115.2,North
2018-09-17T04:00:28Z,1537156829,2018,4,0,260.167,260.167,81.48064,132.50752,-999.00,-1.2,-999.0,no,yes,no,300234011882340,iSVP,AWI,PS115.2,North
2018-09-17T04:30:43Z,1537158643,2018,4,30,260.188,260.188,81.49199,132.77177,-999.00,-1.1,-999.0,no,yes,no,300234011882340,iSVP,AWI,PS115.2,North
2018-09-17T04:59:31Z,1537160371,2018,5,0,260.208,260.208,81.48625,133.04271,-999.00,-1.05,-999.0,no,yes,no,300234011882340,iSVP,AWI,PS115.2,North
2018-09-17T05:29:45Z,1537162186,2018,5,30,260.229,260.229,81.48675,133.31533,-999.00,-1.05,-999.0,no,yes,no,300234011882340,iSVP,AWI,PS115.2,North
2018-09-17T06:00:00Z,1537164000,2018,6,0,260.25,260.25,81.48905,133.59123,-999.00,-1.0,-999.0,no,yes,no,300234011882340,iSVP,AWI,PS115.2,North
2018-09-17T06:30:14Z,1537165814,2018,6,30,260.271,260.271,81.48928,133.85764,-999.00,-0.95,-999.0,no,yes,no,300234011882340,iSVP,AWI,PS115.2,North
2018-09-17T07:00:28Z,1537167629,2018,7,0,260.292,260.292,81.49098,134.12249,-999.00,-0.95,-999.0,no,yes,no,300234011882340,iSVP,AWI,PS115.2,North
2018-09-17T07:29:16Z,1537169357,2018,7,30,260.312,260.312,81.49165,134.38738,-999.00,-0.95,-999.0,no,yes,no,300234011882340,iSVP,AWI,PS115.2,North
2018-09-17T07:59:31Z,1537171171,2018,8,0,260.333,260.333,81.49206,134.65666,-999.00,-0.95,-999.0,no,yes,no,300234011882340,iSVP,AWI,PS115.2,North
2018-09-17T08:29:45Z,1537172986,2018,8,30,260.354,260.354,81.49247,134.92947,-999.00,-0.95,-999.0,no,yes,no,300234011882340,iSVP,AWI,PS115.2,North
2018-09-17T09:00:00Z,1537174800,2018,9,0,260.375,260.375,81.49308,135.20236,-999.00,-0.95,-999.0,no,yes,no,300234011882340,iSVP,AWI,PS115.2,North
2018-09-17T09:30:14Z,1537176614,2018,9,30,260.396,260.396,81.49354,135.48016,-999.00,-0.95,-999.0,no,yes,no,300234011882340,iSVP,AWI,PS115.2,North
2018-09-17T10:00:28Z,1537178429,2018,10,0,260.417,260.417,81.4941,135.76349,-999.00,-0.9,-999.0,no,yes,no,300234011882340,iSVP,AWI,PS115.2,North
2018-09-17T10:30:43Z,1537180243,2018,10,30,260.438,260.438,81.49474,136.03682,-999.00,-0.9,-999.0,no,yes,no,300234011882340,iSVP,AWI,PS115.2,North
2018-09-17T10:59:31Z,1537181971,2018,11,0,260.458,260.458,81.49636,136.31821,-999.00,-0.9,-999.0,no,yes,no,300234011882340,iSVP,AWI,PS115.2,North
2018-09-17T11:29:45Z,1537183786,2018,11,30,260.479,260.479,81.50165,136.58941,-999.00,-0.95,-999.0,no,yes,no,300234011882340,iSVP,AWI,PS115.2,North
2018-09-17T12:00:00Z,1537185600,2018,12,0,260.5,260.5,81.50708,136.85473,-999.00,-0.9,-999.0,no,yes,no,300234011882340,iSVP,AWI,PS115.2,North
2018-09-17T12:30:14Z,1537187414,2018,12,30,260.521,260.521,81.51254,137.13147,-999.00,-0.9,-999.0,no,yes,no,300234011882340,iSVP,AWI,PS115.2,North
2018-09-17T13:00:28Z,1537189229,2018,13,0,260.542,260.542,81.51793,137.39361,-999.00,-0.9,-999.0,no,yes,no,300234011882340,iSVP,AWI,PS115.2,North
2018-09-17T13:29:16Z,1537190957,2018,13,30,260.562,260.562,81.52351,137.66469,-999.00,-0.85,-999.0,no,yes,no,300234011882340,iSVP,AWI,PS115.2,North
2018-09-17T13:59:31Z,1537192771,2018,14,0,260.583,260.583,81.52924,137.94403,-999.00,-0.8,-999.0,no,yes,no,300234011882340,iSVP,AWI,PS115.2,North
2018-09-17T14:29:45Z,1537194586,2018,14,30,260.604,260.604,81.53501,138.23083,-999.00,-0.75,-999.0,no,yes,no,300234011882340,iSVP,AWI,PS115.2,North
2018-09-17T15:00:00Z,1537196400,2018,15,0,260.625,260.625,81.54051,138.51341,-999.00,-0.7,-999.0,no,yes,no,300234011882340,iSVP,AWI,PS115.2,North
2018-09-17T15:30:14Z,1537198214,2018,15,30,260.646,260.646,81.54758,138.78953,-999.00,-0.7,-999.0,no,yes,no,300234011882340,iSVP,AWI,PS115.2,North
2018-09-17T16:00:28Z,1537200029,2018,16,0,260.667,260.667,81.55876,139.07041,-999.00,-0.8,-999.0,no,yes,no,300234011882340,iSVP,AWI,PS115.2,North
2018-09-17T16:30:43Z,1537201843,2018,16,30,260.688,260.688,81.57021,139.3484,-999.00,-0.85,-999.0,no,yes,no,300234011882340,iSVP,AWI,PS115.2,North
2018-09-17T16:59:31Z,1537203571,2018,17,0,260.708,260.708,81.58132,139.63641,-999.00,-0.85,-999.0,no,yes,no,300234011882340,iSVP,AWI,PS115.2,North
2018-09-17T17:29:45Z,1537205386,2018,17,30,260.729,260.729,81.58558,139.91564,-999.00,-0.85,-999.0,no,yes,no,300234011882340,iSVP,AWI,PS115.2,North
2018-09-17T18:00:00Z,1537207200,2018,18,0,260.75,260.75,81.56358,140.14367,-999.00,-0.95,-999.0,no,yes,no,300234011882340,iSVP,AWI,PS115.2,North
2018-09-17T18:30:14Z,1537209014,2018,18,30,260.771,260.771,81.53274,140.31272,-999.00,-0.85,-999.0,no,yes,no,300234011882340,iSVP,AWI,PS115.2,North
2018-09-17T19:00:28Z,1537210829,2018,19,0,260.792,260.792,81.50256,140.48114,-999.00,-0.75,-999.0,no,yes,no,300234011882340,iSVP,AWI,PS115.2,North
2018-09-17T19:29:16Z,1537212557,2018,19,30,260.812,260.812,81.47128,140.64902,-999.00,-0.7,-999.0,no,yes,no,300234011882340,iSVP,AWI,PS115.2,North
2018-09-17T19:59:31Z,1537214371,2018,20,0,260.833,260.833,81.44028,140.81987,-999.00,-0.7,-999.0,no,yes,no,300234011882340,iSVP,AWI,PS115.2,North
2018-09-17T20:29:45Z,1537216186,2018,20,30,260.854,260.854,81.41006,140.98028,-999.00,-0.6,-999.0,no,yes,no,300234011882340,iSVP,AWI,PS115.2,North
2018-09-17T21:00:00Z,1537218000,2018,21,0,260.875,260.875,81.37853,141.14946,-999.00,-0.55,-999.0,no,yes,no,300234011882340,iSVP,AWI,PS115.2,North
2018-09-17T21:30:14Z,1537219814,2018,21,30,260.896,260.896,81.34585,141.32256,-999.00,-0.55,-999.0,no,yes,no,300234011882340,iSVP,AWI,PS115.2,North
2018-09-17T22:00:28Z,1537221629,2018,22,0,260.917,260.917,81.31339,141.48314,-999.00,-0.5,-999.0,no,yes,no,300234011882340,iSVP,AWI,PS115.2,North
2018-09-17T22:30:43Z,1537223443,2018,22,30,260.938,260.938,81.28008,141.63648,-999.00,-0.4,-999.0,no,yes,no,300234011882340,iSVP,AWI,PS115.2,North
2018-09-17T22:59:31Z,1537225171,2018,23,0,260.958,260.958,81.24782,141.78909,-999.00,-0.3,-999.0,no,yes,no,300234011882340,iSVP,AWI,PS115.2,North
2018-09-17T23:29:45Z,1537226986,2018,23,30,260.979,260.979,81.21531,141.94024,-999.00,-0.25,-999.0,no,yes,no,300234011882340,iSVP,AWI,PS115.2,North
2018-09-18T00:00:00Z,1537228800,2018,0,0,261.0,261.0,81.18187,142.09319,-999.00,-0.2,-999.0,no,yes,no,300234011882340,iSVP,AWI,PS115.2,North
2018-09-18T00:30:14Z,1537230614,2018,0,30,261.021,261.021,81.14904,142.25465,-999.00,-0.2,-999.0,no,yes,no,300234011882340,iSVP,AWI,PS115.2,North
2018-09-18T01:00:28Z,1537232429,2018,1,0,261.042,261.042,81.11682,142.41357,-999.00,-0.15,-999.0,no,yes,no,300234011882340,iSVP,AWI,PS115.2,North
2018-09-18T01:29:16Z,1537234157,2018,1,30,261.062,261.062,81.08362,142.57457,-999.00,-0.1,-999.0,no,yes,no,300234011882340,iSVP,AWI,PS115.2,North
2018-09-18T01:59:31Z,1537235971,2018,2,0,261.083,261.083,81.05079,142.7354,-999.00,-0.05,-999.0,no,yes,no,300234011882340,iSVP,AWI,PS115.2,North
2018-09-18T02:29:45Z,1537237786,2018,2,30,261.104,261.104,81.0186,142.89086,-999.00,-0.05,-999.0,no,yes,no,300234011882340,iSVP,AWI,PS115.2,North
2018-09-18T03:00:00Z,1537239600,2018,3,0,261.125,261.125,80.99028,143.08151,-999.00,0.0,-999.0,no,yes,no,300234011882340,iSVP,AWI,PS115.2,North
2018-09-18T03:30:14Z,1537241414,2018,3,30,261.146,261.146,80.96633,143.29469,-999.00,0.0,-999.0,no,yes,no,300234011882340,iSVP,AWI,PS115.2,North
2018-09-18T04:00:28Z,1537243229,2018,4,0,261.167,261.167,80.94356,143.50266,-999.00,0.05,-999.0,no,yes,no,300234011882340,iSVP,AWI,PS115.2,North
2018-09-18T04:30:43Z,1537245043,2018,4,30,261.188,261.188,80.92831,143.74364,-999.00,0.1,-999.0,no,yes,no,300234011882340,iSVP,AWI,PS115.2,North
2018-09-18T04:59:31Z,1537246771,2018,5,0,261.208,261.208,80.92044,143.98793,-999.00,-0.1,-999.0,no,yes,no,300234011882340,iSVP,AWI,PS115.2,North
2018-09-18T05:29:45Z,1537248586,2018,5,30,261.229,261.229,80.91199,144.23468,-999.00,-0.1,-999.0,no,yes,no,300234011882340,iSVP,AWI,PS115.2,North
2018-09-18T06:00:00Z,1537250400,2018,6,0,261.25,261.25,80.90328,144.48264,-999.00,-0.3,-999.0,no,yes,no,300234011882340,iSVP,AWI,PS115.2,North
2018-09-18T06:30:14Z,1537252214,2018,6,30,261.271,261.271,80.89569,144.72951,-999.00,-0.45,-999.0,no,yes,no,300234011882340,iSVP,AWI,PS115.2,North
2018-09-18T07:00:28Z,1537254029,2018,7,0,261.292,261.292,80.88717,144.97712,-999.00,-0.45,-999.0,no,yes,no,300234011882340,iSVP,AWI,PS115.2,North
2018-09-18T07:29:16Z,1537255757,2018,7,30,261.312,261.312,80.87785,145.23418,-999.00,-0.5,-999.0,no,yes,no,300234011882340,iSVP,AWI,PS115.2,North
2018-09-18T07:59:31Z,1537257571,2018,8,0,261.333,261.333,80.86855,145.49376,-999.00,-0.4,-999.0,no,yes,no,300234011882340,iSVP,AWI,PS115.2,North
2018-09-18T08:29:45Z,1537259386,2018,8,30,261.354,261.354,80.85978,145.74653,-999.00,-0.2,-999.0,no,yes,no,300234011882340,iSVP,AWI,PS115.2,North
2018-09-18T09:00:00Z,1537261200,2018,9,0,261.375,261.375,80.85099,146.00298,-999.00,-0.15,-999.0,no,yes,no,300234011882340,iSVP,AWI,PS115.2,North
2018-09-18T09:30:14Z,1537263014,2018,9,30,261.396,261.396,80.84266,146.252,-999.00,-0.15,-999.0,no,yes,no,300234011882340,iSVP,AWI,PS115.2,North
2018-09-18T10:00:28Z,1537264829,2018,10,0,261.417,261.417,80.83404,146.49877,-999.00,-0.1,-999.0,no,yes,no,300234011882340,iSVP,AWI,PS115.2,North
2018-09-18T10:30:43Z,1537266643,2018,10,30,261.438,261.438,80.82568,146.74893,-999.00,-0.1,-999.0,no,yes,no,300234011882340,iSVP,AWI,PS115.2,North
2018-09-18T10:59:31Z,1537268371,2018,11,0,261.458,261.458,80.81719,146.99764,-999.00,-0.15,-999.0,no,yes,no,300234011882340,iSVP,AWI,PS115.2,North
2018-09-18T11:29:45Z,1537270186,2018,11,30,261.479,261.479,80.80987,147.25158,-999.00,-0.15,-999.0,no,yes,no,300234011882340,iSVP,AWI,PS115.2,North
2018-09-18T12:00:00Z,1537272000,2018,12,0,261.5,261.5,80.80103,147.49589,-999.00,-0.15,-999.0,no,yes,no,300234011882340,iSVP,AWI,PS115.2,North
2018-09-18T12:30:14Z,1537273814,2018,12,30,261.521,261.521,80.79188,147.74292,-999.00,-0.15,-999.0,no,yes,no,300234011882340,iSVP,AWI,PS115.2,North
2018-09-18T13:00:28Z,1537275629,2018,13,0,261.542,261.542,80.7823,147.98867,-999.00,-0.1,-999.0,no,yes,no,300234011882340,iSVP,AWI,PS115.2,North
2018-09-18T13:29:16Z,1537277357,2018,13,30,261.562,261.562,80.77352,148.23772,-999.00,-0.1,-999.0,no,yes,no,300234011882340,iSVP,AWI,PS115.2,North
2018-09-18T13:59:31Z,1537279171,2018,14,0,261.583,261.583,80.78949,148.37769,-999.00,-0.05,-999.0,no,yes,no,300234011882340,iSVP,AWI,PS115.2,North
2018-09-18T14:29:45Z,1537280986,2018,14,30,261.604,261.604,80.79563,148.15284,-999.00,-0.05,-999.0,no,yes,no,300234011882340,iSVP,AWI,PS115.2,North
2018-09-18T15:00:00Z,1537282800,2018,15,0,261.625,261.625,80.78208,147.95051,-999.00,-0.05,-999.0,no,yes,no,300234011882340,iSVP,AWI,PS115.2,North
2018-09-18T15:30:14Z,1537284614,2018,15,30,261.646,261.646,80.78238,147.7018,-999.00,-0.05,-999.0,no,yes,no,300234011882340,iSVP,AWI,PS115.2,North
2018-09-18T16:00:28Z,1537286429,2018,16,0,261.667,261.667,80.78254,147.44805,-999.00,-0.05,-999.0,no,yes,no,300234011882340,iSVP,AWI,PS115.2,North
2018-09-18T16:30:43Z,1537288243,2018,16,30,261.688,261.688,80.78227,147.19461,-999.00,-0.05,-999.0,no,yes,no,300234011882340,iSVP,AWI,PS115.2,North
2018-09-18T16:59:31Z,1537289971,2018,17,0,261.708,261.708,80.78227,146.93539,-999.00,-0.05,-999.0,no,yes,no,300234011882340,iSVP,AWI,PS115.2,North
2018-09-18T17:29:45Z,1537291786,2018,17,30,261.729,261.729,80.78202,146.67735,-999.00,-0.05,-999.0,no,yes,no,300234011882340,iSVP,AWI,PS115.2,North
2018-09-18T18:00:00Z,1537293600,2018,18,0,261.75,261.75,80.78217,146.41431,-999.00,-0.05,-999.0,no,yes,no,300234011882340,iSVP,AWI,PS115.2,North
2018-09-18T18:30:14Z,1537295414,2018,18,30,261.771,261.771,80.78197,146.15127,-999.00,-0.05,-999.0,no,yes,no,300234011882340,iSVP,AWI,PS115.2,North
2018-09-18T19:00:28Z,1537297229,2018,19,0,261.792,261.792,80.782,145.8902,-999.00,-0.05,-999.0,no,yes,no,300234011882340,iSVP,AWI,PS115.2,North
2018-09-18T19:29:16Z,1537298957,2018,19,30,261.812,261.812,80.78203,145.62237,-999.00,-0.05,-999.0,no,yes,no,300234011882340,iSVP,AWI,PS115.2,North
2018-09-18T19:59:31Z,1537300771,2018,20,0,261.833,261.833,80.78214,145.35711,-999.00,0.0,-999.0,no,yes,no,300234011882340,iSVP,AWI,PS115.2,North
2018-09-18T20:29:45Z,1537302586,2018,20,30,261.854,261.854,80.78181,145.09712,-999.00,0.05,-999.0,no,yes,no,300234011882340,iSVP,AWI,PS115.2,North
2018-09-18T21:00:00Z,1537304400,2018,21,0,261.875,261.875,80.78134,144.8427,-999.00,0.05,-999.0,no,yes,no,300234011882340,iSVP,AWI,PS115.2,North
2018-09-18T21:30:14Z,1537306214,2018,21,30,261.896,261.896,80.78197,144.58248,-999.00,0.1,-999.0,no,yes,no,300234011882340,iSVP,AWI,PS115.2,North
2018-09-18T22:00:28Z,1537308029,2018,22,0,261.917,261.917,80.78218,144.32786,-999.00,0.1,-999.0,no,yes,no,300234011882340,iSVP,AWI,PS115.2,North
2018-09-18T22:30:43Z,1537309843,2018,22,30,261.938,261.938,80.78212,144.07493,-999.00,0.15,-999.0,no,yes,no,300234011882340,iSVP,AWI,PS115.2,North
2018-09-18T22:59:31Z,1537311571,2018,23,0,261.958,261.958,80.78196,143.81684,-999.00,0.1,-999.0,no,yes,no,300234011882340,iSVP,AWI,PS115.2,North
2018-09-18T23:29:45Z,1537313386,2018,23,30,261.979,261.979,80.78205,143.55717,-999.00,0.15,-999.0,no,yes,no,300234011882340,iSVP,AWI,PS115.2,North
2018-09-19T00:00:00Z,1537315200,2018,0,0,262.0,262.0,80.78085,143.3096,-999.00,0.2,-999.0,no,yes,no,300234011882340,iSVP,AWI,PS115.2,North
2018-09-19T00:30:14Z,1537317014,2018,0,30,262.021,262.021,80.79889,143.1371,-999.00,0.45,-999.0,no,yes,no,300234011882340,iSVP,AWI,PS115.2,North
2018-09-19T01:00:28Z,1537318829,2018,1,0,262.042,262.042,80.83404,143.05125,-999.00,0.45,-999.0,no,yes,no,300234011882340,iSVP,AWI,PS115.2,North
2018-09-19T01:29:16Z,1537320557,2018,1,30,262.062,262.062,80.90491,142.83257,-999.00,0.4,-999.0,no,yes,no,300234011882340,iSVP,AWI,PS115.2,North
2018-09-19T01:59:31Z,1537322371,2018,2,0,262.083,262.083,80.96109,142.44697,-999.00,0.4,-999.0,no,yes,no,300234011882340,iSVP,AWI,PS115.2,North
2018-09-19T02:29:45Z,1537324186,2018,2,30,262.104,262.104,81.01542,142.06819,-999.00,0.3,-999.0,no,yes,no,300234011882340,iSVP,AWI,PS115.2,North
2018-09-19T03:00:00Z,1537326000,2018,3,0,262.125,262.125,81.04912,141.59798,-999.00,0.4,-999.0,no,yes,no,300234011882340,iSVP,AWI,PS115.2,North
2018-09-19T03:30:14Z,1537327814,2018,3,30,262.146,262.146,81.07726,141.10666,-999.00,0.15,-999.0,no,yes,no,300234011882340,iSVP,AWI,PS115.2,North
2018-09-19T04:00:28Z,1537329629,2018,4,0,262.167,262.167,81.08774,140.91319,-999.00,0.2,-999.0,no,yes,no,300234011882340,iSVP,AWI,PS115.2,North
2018-09-19T04:30:43Z,1537331443,2018,4,30,262.188,262.188,81.08781,140.91341,-999.00,0.15,-999.0,no,yes,no,300234011882340,iSVP,AWI,PS115.2,North
2018-09-19T04:59:31Z,1537333171,2018,5,0,262.208,262.208,81.08785,140.91377,-999.00,0.2,-999.0,no,yes,no,300234011882340,iSVP,AWI,PS115.2,North
2018-09-19T05:29:45Z,1537334986,2018,5,30,262.229,262.229,81.08776,140.91359,-999.00,0.25,-999.0,no,yes,no,300234011882340,iSVP,AWI,PS115.2,North
2018-09-19T06:00:00Z,1537336800,2018,6,0,262.25,262.25,81.08773,140.91352,-999.00,0.2,-999.0,no,yes,no,300234011882340,iSVP,AWI,PS115.2,North
2018-09-19T06:30:14Z,1537338614,2018,6,30,262.271,262.271,81.0877,140.91415,-999.00,0.3,-999.0,no,yes,no,300234011882340,iSVP,AWI,PS115.2,North
2018-09-19T07:00:28Z,1537340429,2018,7,0,262.292,262.292,81.08754,140.91371,-999.00,0.25,-999.0,no,yes,no,300234011882340,iSVP,AWI,PS115.2,North
2018-09-19T07:29:16Z,1537342157,2018,7,30,262.312,262.312,81.08748,140.91371,-999.00,0.35,-999.0,no,yes,no,300234011882340,iSVP,AWI,PS115.2,North
2018-09-19T07:59:31Z,1537343971,2018,8,0,262.333,262.333,81.08791,140.90864,-999.00,0.25,-999.0,no,yes,no,300234011882340,iSVP,AWI,PS115.2,North
2018-09-19T08:29:45Z,1537345786,2018,8,30,262.354,262.354,81.08619,140.89462,-999.00,0.1,-999.0,no,yes,no,300234011882340,iSVP,AWI,PS115.2,North
2018-09-19T09:00:00Z,1537347600,2018,9,0,262.375,262.375,81.08508,140.89401,-999.00,0.3,-999.0,no,yes,no,300234011882340,iSVP,AWI,PS115.2,North
2018-09-19T09:30:14Z,1537349414,2018,9,30,262.396,262.396,81.08529,140.89392,-999.00,0.3,-999.0,no,yes,no,300234011882340,iSVP,AWI,PS115.2,North
2018-09-19T10:00:28Z,1537351229,2018,10,0,262.417,262.417,81.08515,140.89,-999.00,0.05,-999.0,no,yes,no,300234011882340,iSVP,AWI,PS115.2,North
2018-09-19T10:30:43Z,1537353043,2018,10,30,262.438,262.438,81.08533,140.88912,-999.00,0.2,-999.0,no,yes,no,300234011882340,iSVP,AWI,PS115.2,North
2018-09-19T10:59:31Z,1537354771,2018,11,0,262.458,262.458,81.08572,140.88909,-999.00,0.25,-999.0,no,yes,no,300234011882340,iSVP,AWI,PS115.2,North
2018-09-19T11:29:45Z,1537356586,2018,11,30,262.479,262.479,81.08536,140.89211,-999.00,0.2,-999.0,no,yes,no,300234011882340,iSVP,AWI,PS115.2,North
2018-09-19T12:00:00Z,1537358400,2018,12,0,262.5,262.5,81.08462,140.88154,-999.00,0.15,-999.0,no,yes,no,300234011882340,iSVP,AWI,PS115.2,North
2018-09-19T12:30:14Z,1537360214,2018,12,30,262.521,262.521,81.0818,140.86263,-999.00,0.15,-999.0,no,yes,no,300234011882340,iSVP,AWI,PS115.2,North
2018-09-19T13:00:28Z,1537362029,2018,13,0,262.542,262.542,81.08182,140.8664,-999.00,0.05,-999.0,no,yes,no,300234011882340,iSVP,AWI,PS115.2,North
2018-09-19T13:29:16Z,1537363757,2018,13,30,262.562,262.562,81.08214,140.86543,-999.00,0.05,-999.0,no,yes,no,300234011882340,iSVP,AWI,PS115.2,North